GFSSE_prec_cloud_276.txt.gz
Cloud_Cover
78 28 5 80 64 98 100 100 100 8 5 3 0 0 0 0 3 0 20 84 96 40 5 5 65 90 74 23 13 45 5 5 16 5 37 83 33 5 61 30 73 100 100
63 54 0 1 5 5 12 84 73 4 11 0 0 0 0 2 3 0 5 40 75 40 5 29 22 69 50 7 21 28 5 65 5 12 45 93 100 100 68 92 100 94 67
31 60 9 0 0 2 4 4 1 0 0 0 0 0 0 2 0 2 82 72 5 5 26 16 29 34 32 5 40 100 92 50 5 38 100 100 100 81 100 100 100 100 100
28 34 32 0 1 6 0 4 3 1 1 0 0 0 0 5 0 94 32 32 5 8 6 13 6 10 14 45 100 100 100 100 68 36 66 98 38 6 95 80 13 42 53
5 20 7 5 5 2 5 4 0 0 5 0 3 2 8 0 5 5 6 9 5 6 11 6 98 17 9 65 100 100 100 100 100 100 100 99 69 5 79 26 30 22 52
0 11 2 4 5 5 5 1 3 17 0 11 2 0 4 100 98 3 5 4 5 5 25 66 44 49 27 91 32 100 100 100 100 100 100 100 100 100 100 100 100 31 23
2 5 5 5 5 5 5 9 0 5 0 2 4 5 43 95 5 4 3 11 3 8 42 5 40 85 16 5 27 100 100 100 100 100 100 100 89 83 90 91 100 19 5
0 5 5 5 5 5 5 10 5 5 5 5 5 5 9 2 9 5 4 5 3 0 7 8 100 26 91 52 59 72 92 100 100 100 100 100 100 100 53 34 70 41 44
0 4 5 5 5 28 11 6 9 21 5 29 6 8 5 5 6 5 2 2 2 1 5 3 37 82 100 100 28 100 75 99 100 100 100 100 100 42 100 100 98 62 12
0 0 5 3 4 5 5 12 7 5 11 5 51 89 5 6 99 6 10 49 3 1 3 0 61 99 100 74 11 87 100 78 30 32 49 100 100 100 100 100 100 100 15
0 0 0 0 5 6 5 5 5 5 57 67 23 35 30 100 39 100 13 7 22 5 5 6 49 98 100 100 24 6 20 5 6 51 35 98 47 100 98 96 100 100 100
0 0 0 3 5 20 5 9 11 24 61 90 100 91 100 96 8 42 90 56 100 99 5 5 14 10 73 94 99 98 7 13 7 37 32 61 89 100 100 100 100 100 100
0 0 3 5 5 5 5 5 5 5 5 72 78 98 63 48 91 79 58 100 98 99 85 14 29 18 50 100 99 41 62 55 50 40 28 90 100 100 100 98 96 100 100
0 0 5 5 5 5 5 8 94 99 62 5 6 22 100 100 66 15 5 12 22 8 14 22 98 96 40 26 34 95 63 44 76 98 79 39 81 100 100 100 100 98 100
0 1 0 1 4 4 5 7 9 14 10 16 8 9 47 17 9 22 5 5 7 10 29 28 89 100 89 16 7 36 95 100 100 96 78 99 95 97 100 100 100 100 100
0 0 4 1 5 5 5 26 68 19 14 82 80 100 96 35 15 26 71 80 79 91 60 79 60 21 10 70 69 64 80 100 100 100 100 76 94 100 100 100 100 100 100
4 4 0 5 5 2 5 5 5 5 9 58 72 99 90 97 28 98 98 37 94 100 40 60 63 36 8 37 25 66 76 100 100 100 100 100 100 100 98 100 100 100 100
0 4 1 0 6 10 11 42 29 9 6 17 35 99 61 50 100 100 98 88 82 99 63 70 25 86 50 11 5 57 97 98 100 100 100 100 100 100 100 70 100 100 100
0 0 0 12 100 100 99 65 100 94 71 70 88 100 100 99 100 100 100 100 99 44 91 68 57 23 100 11 13 34 100 100 100 100 99 100 100 100 98 100 100 97 96
0 0 0 0 47 71 60 37 39 89 100 100 100 100 100 100 100 100 84 97 70 17 8 62 33 66 98 88 28 53 28 48 100 100 100 98 81 100 100 100 79 50 100
20 1 0 0 0 5 100 70 35 95 20 64 100 74 67 85 58 70 100 84 88 85 68 18 95 100 100 100 100 61 16 28 74 100 100 99 100 100 93 100 97 73 79
95 100 0 0 0 52 100 100 100 100 100 100 100 49 73 88 100 100 100 100 100 90 100 100 99 80 95 98 100 100 94 54 78 100 100 100 100 88 100 100 95 90 85
87 100 100 5 16 100 100 90 73 100 100 100 100 100 100 72 94 97 100 100 100 100 59 99 100 82 54 98 100 100 100 99 100 100 99 100 92 62 64 100 100 69 91
55 56 5 24 93 100 100 100 100 100 99 100 100 100 100 100 100 100 100 100 69 80 54 60 36 28 82 78 66 100 56 99 100 97 100 100 97 100 80 80 98 56 48
5 10 5 58 100 96 100 62 88 95 100 78 45 100 100 100 100 100 100 100 100 100 100 100 96 87 44 35 86 48 100 55 85 100 100 100 100 87 95 100 100 100 90
5 7 5 100 100 100 100 35 26 75 81 78 54 100 100 87 100 100 100 98 85 100 100 100 100 100 100 100 100 82 98 100 100 96 99 91 100 100 100 100 100 83 91

GFSSE_prec_cloud_279.txt.gz
Cloud_Cover
100 6 18 6 52 94 65 8 25 77 100 100 68 90 5 4 0 0 5 76 100 85 5 5 5 31 18 65 100 100 10 14 5 5 11 5 18 5 5 28 100 100 100
70 11 4 0 0 5 23 100 58 71 99 100 25 2 1 0 0 0 18 100 100 6 5 6 5 5 60 100 95 100 60 13 5 5 5 5 5 72 5 5 24 36 100
34 6 5 0 0 0 0 0 5 8 26 15 14 3 0 0 0 0 6 8 49 99 5 12 5 38 7 100 77 38 100 98 6 5 99 100 9 5 8 22 58 76 17
25 14 8 2 0 1 0 0 0 0 0 2 0 0 0 1 7 12 5 5 100 50 6 5 25 4 49 98 88 98 77 100 98 10 100 100 97 1 5 5 5 5 38
14 21 5 5 1 5 0 0 0 0 0 1 0 0 0 5 10 8 5 92 55 5 9 35 29 54 98 11 7 81 10 58 100 45 100 100 86 78 69 55 87 91 12
42 11 4 5 39 1 4 1 2 0 0 0 0 0 45 4 5 5 10 84 5 4 30 7 46 27 5 5 6 10 95 17 100 100 99 74 100 100 100 100 100 84 13
83 5 5 5 5 5 1 0 11 0 0 0 2 0 100 97 100 11 4 3 2 36 5 5 5 5 24 72 72 10 41 83 83 100 100 100 100 99 100 100 39 39 33
23 5 5 5 5 5 16 0 0 0 2 0 4 19 100 100 44 14 0 0 1 5 5 8 57 94 73 73 5 50 6 6 90 71 100 100 100 100 100 100 100 79 5
0 5 5 5 5 5 22 5 8 5 5 5 5 5 5 5 5 8 8 2 8 5 3 5 51 100 68 35 68 5 5 50 19 91 62 82 100 35 95 100 100 100 98
0 0 0 0 0 4 5 5 17 6 12 12 16 32 9 6 16 62 5 5 7 5 5 13 96 5 5 5 5 5 5 5 60 97 36 34 96 100 38 92 100 100 100
0 0 0 24 0 0 3 5 5 5 5 5 5 27 58 88 72 81 28 5 37 5 5 5 5 5 5 62 36 6 5 5 5 33 81 8 90 98 99 97 100 100 100
0 0 0 46 11 0 1 1 1 6 3 9 10 38 73 35 14 12 29 6 74 59 95 5 91 72 22 20 56 64 85 60 55 26 43 99 91 95 77 100 100 100 100
0 0 0 0 38 12 15 5 9 25 16 11 5 80 6 33 5 100 43 31 33 33 33 84 6 11 18 15 93 64 58 100 54 100 93 91 100 100 100 100 100 100 100
0 0 0 0 0 7 16 5 5 5 91 35 7 5 5 14 85 7 9 17 25 100 100 100 52 27 90 66 5 5 49 63 95 99 79 100 24 92 97 100 100 100 100
1 1 0 0 0 0 5 69 9 5 4 78 54 21 5 5 11 30 100 99 42 95 100 100 100 90 8 100 98 97 100 58 100 53 92 100 100 97 98 97 100 100 100
16 1 9 0 0 1 5 20 51 5 7 57 62 94 86 26 90 100 100 100 56 100 51 100 100 100 100 100 100 100 96 92 92 99 100 99 100 100 100 22 80 100 100
61 28 1 0 0 0 5 5 5 5 54 96 11 49 42 82 100 100 100 100 99 92 94 99 88 100 100 98 92 95 51 97 100 100 100 100 99 100 100 100 90 95 93
77 8 5 5 68 3 1 4 21 100 99 96 92 60 30 100 100 100 100 100 100 72 75 97 98 87 31 99 100 100 100 76 100 100 100 100 100 99 100 100 100 97 17
16 9 4 4 13 11 0 3 6 29 11 75 99 100 26 91 100 100 100 100 100 100 100 74 100 70 73 100 94 100 89 63 66 85 74 100 100 100 100 100 100 98 9
21 45 5 6 0 0 0 5 1 12 95 57 62 95 97 99 100 100 100 87 95 88 98 100 97 100 100 100 100 100 100 100 100 39 53 100 100 96 100 100 100 100 7
100 99 23 5 3 0 1 29 4 1 8 5 5 5 27 5 100 100 23 100 100 100 34 36 100 100 97 100 100 100 100 100 100 100 33 44 100 6 92 100 100 99 44
69 100 100 4 0 0 100 100 100 100 100 100 100 100 95 20 8 72 52 74 100 100 80 40 45 99 62 98 100 100 97 100 100 100 98 65 94 20 45 36 70 94 99
4 100 100 75 1 64 91 100 100 100 84 83 100 100 100 100 93 95 98 70 76 100 92 84 100 100 100 98 87 90 73 100 100 100 78 76 96 100 48 37 95 27 100
5 94 91 89 57 73 90 50 100 95 60 100 100 87 19 62 55 50 100 94 88 90 100 97 100 100 100 52 30 100 94 98 100 100 100 100 100 100 100 93 5 5 63
6 58 89 38 55 10 100 16 59 80 98 62 31 6 43 20 100 100 89 100 93 82 93 60 72 98 51 86 100 100 99 100 100 100 99 100 100 100 100 100 100 92 87
54 5 7 5 66 5 30 36 42 72 99 86 43 4 32 34 100 97 99 89 95 51 96 72 79 80 100 100 100 100 100 100 100 95 100 54 100 100 100 100 100 100 100

GFSSE_prec_cloud_285.txt.gz
Cloud_Cover
5 5 38 100 100 82 54 100 31 100 100 91 100 66 100 65 100 100 36 5 5 98 5 5 5 66 28 43 100 99 100 92 90 100 100 100 100 100 100 5 8 13 14
5 13 22 20 6 93 10 90 100 18 100 100 100 100 100 100 55 7 3 5 66 59 4 3 4 73 52 100 98 100 100 100 92 100 88 6 78 100 100 74 24 22 15
4 6 0 4 11 56 11 5 10 14 29 98 13 5 15 17 0 93 5 81 53 14 5 5 5 55 100 100 99 91 100 5 25 100 99 100 100 100 100 26 35 95 95
0 0 0 2 0 0 0 1 19 73 6 72 87 51 0 0 0 2 4 5 5 5 5 1 3 29 85 64 92 100 100 100 100 90 100 41 66 82 100 100 95 87 94
0 0 4 4 0 0 0 0 0 0 2 0 0 0 0 0 0 0 2 5 4 3 5 5 2 7 8 99 100 100 100 94 97 96 81 78 5 13 20 70 100 100 100
0 0 2 5 0 0 0 0 0 0 0 1 0 0 0 15 0 0 0 0 1 3 13 32 5 5 6 98 7 30 100 100 100 100 100 100 98 97 36 88 100 98 100
0 0 0 20 25 32 0 0 1 0 0 3 3 4 0 0 6 2 9 6 4 37 5 48 50 7 5 49 15 5 82 100 91 100 100 100 88 100 94 100 100 84 100
0 0 0 1 39 41 34 0 0 10 2 0 0 1 4 3 3 1 2 0 3 5 5 97 5 33 5 11 73 100 84 81 93 100 100 91 100 91 100 100 100 96 97
0 0 0 1 2 34 6 1 0 0 3 4 8 28 4 5 5 3 0 0 4 5 5 6 5 3 5 30 100 100 44 7 38 54 85 91 100 100 76 67 12 97 53
0 0 0 0 0 15 0 0 0 0 3 5 9 84 90 5 6 5 5 5 5 5 5 5 3 0 4 99 100 100 100 68 11 51 54 100 74 91 67 50 64 85 100
0 0 0 0 0 0 1 6 5 5 15 5 5 5 5 5 5 5 5 5 5 5 5 5 6 5 24 100 100 100 100 100 61 35 97 74 100 100 100 100 100 100 100
0 0 0 0 0 0 3 5 2 0 2 4 4 5 4 5 5 5 5 5 5 5 5 5 4 4 41 100 100 98 99 100 90 68 67 100 100 100 100 100 100 100 100
0 0 0 0 0 3 5 2 0 10 5 1 0 0 5 5 5 5 4 5 5 5 5 1 24 3 71 66 99 100 100 100 98 98 74 96 100 98 100 100 100 100 100
38 0 0 25 0 0 5 6 100 100 100 59 5 5 5 22 28 55 16 13 1 5 3 8 59 49 95 58 100 95 98 100 99 100 100 70 54 100 100 100 100 100 100
10 0 0 0 0 5 56 12 100 100 100 45 4 19 100 100 100 100 100 100 100 75 22 98 33 100 58 100 100 91 97 93 52 100 100 100 100 100 100 100 100 100 100
0 0 0 0 0 0 1 5 8 100 96 3 6 99 100 100 100 100 100 100 100 100 100 100 92 39 98 98 86 81 27 90 99 100 100 95 100 100 100 100 100 100 100
0 0 0 0 0 0 0 2 4 5 0 5 59 95 100 100 70 52 48 46 31 17 86 100 100 100 98 76 100 100 100 100 100 100 100 100 100 100 100 100 100 100 100
0 0 0 0 0 0 0 0 0 0 0 0 8 62 55 24 26 32 75 62 99 100 100 100 100 100 98 96 100 100 100 100 100 100 100 100 100 100 100 100 100 100 100
0 0 0 0 0 0 0 0 0 0 27 28 6 52 70 20 33 50 14 25 92 100 100 100 100 100 100 100 52 98 100 100 100 100 100 100 100 97 100 100 100 100 100
0 0 0 0 0 0 0 0 0 0 0 4 55 98 6 20 62 41 70 25 5 96 100 98 100 100 100 100 95 100 100 100 100 64 72 50 99 100 100 100 100 100 100
5 5 0 0 0 0 0 0 0 4 1 74 68 36 61 79 93 100 78 56 100 100 100 100 100 100 99 100 100 100 94 54 27 90 52 48 34 80 81 96 100 100 100
0 82 3 0 0 0 0 0 0 9 34 30 87 11 8 88 100 100 100 100 100 100 100 100 100 100 100 100 100 100 100 100 100 92 23 90 100 97 74 83 100 100 100
0 2 85 20 1 0 0 0 14 99 97 89 2 6 7 21 38 79 100 100 100 100 100 100 100 100 100 100 100 100 100 100 98 100 100 72 78 100 94 93 100 100 100
0 0 0 93 3 0 0 0 100 100 99 100 37 11 3 2 29 20 33 34 100 98 100 100 100 100 100 100 100 100 100 100 100 80 99 100 100 100 100 87 99 100 100
0 0 0 0 1 0 0 0 88 54 70 8 26 72 5 0 0 0 27 62 78 100 8 77 100 100 100 100 100 100 93 100 100 100 100 98 100 100 100 100 100 100 100
0 0 0 1 0 0 0 0 1 5 91 74 69 11 10 5 1 0 6 48 28 63 6 46 79 89 96 100 99 100 100 100 100 97 57 100 100 100 100 90 100 100 100

GFSSE_prec_cloud_291.txt.gz
Cloud_Cover
100 91 100 91 100 100 95 10 8 98 28 63 29 50 46 93 100 100 100 96 48 2 26 59 16 5 5 16 99 96 72 16 42 62 42 100 93 32 88 100 100 47 100
100 100 100 9 59 100 100 99 32 37 16 7 70 38 4 95 34 13 14 91 61 5 6 58 14 5 5 5 54 31 28 16 30 39 6 5 5 5 11 89 18 7 41
100 100 52 5 20 84 72 34 53 87 96 50 99 100 100 85 100 100 82 4 2 18 5 9 12 5 16 27 34 64 8 12 65 96 42 32 85 91 44 36 29 56 73
84 25 4 1 1 0 2 64 100 100 100 100 98 13 51 21 56 71 4 17 4 4 5 5 25 5 99 96 41 64 73 80 100 76 44 87 100 100 98 70 100 71 90
7 1 4 5 2 0 1 0 14 52 32 25 91 29 61 13 28 10 2 2 5 3 7 4 98 25 24 17 97 48 76 100 100 91 98 81 100 94 100 100 94 60 39
1 5 5 5 5 2 6 0 1 2 8 0 0 4 4 0 0 10 10 11 3 2 1 6 24 5 5 5 6 12 40 45 38 100 100 100 100 100 100 100 100 98 71
6 13 65 95 5 15 5 2 6 5 0 0 0 0 2 1 3 2 4 6 4 0 4 5 9 5 11 39 13 81 37 99 70 65 98 100 100 60 100 23 100 100 81
0 1 23 42 64 36 0 4 0 0 0 1 0 3 1 2 1 1 5 4 3 3 6 6 2 18 52 100 47 86 28 28 69 57 67 60 100 100 100 100 100 100 100
6 0 5 82 33 4 10 1 0 0 10 4 3 5 13 5 5 11 6 5 5 8 4 5 4 46 9 21 100 27 11 13 12 46 75 69 76 100 77 100 100 100 100
42 6 1 56 61 5 0 0 5 5 5 5 5 5 5 5 6 9 7 5 5 29 5 5 5 5 8 32 6 18 30 22 35 36 93 67 11 100 100 100 100 100 100
43 17 0 2 3 39 0 5 5 7 4 9 5 6 5 5 5 13 6 24 14 5 5 5 8 42 77 30 12 21 52 92 100 91 42 92 69 98 100 100 100 100 100
26 20 0 0 6 2 0 0 5 5 5 24 52 5 5 5 6 11 34 24 5 7 6 20 38 5 5 22 18 25 5 87 76 99 70 37 80 98 100 100 100 100 100
0 0 0 0 8 8 5 8 18 30 55 5 5 5 5 5 5 6 8 5 21 4 8 10 6 4 4 4 25 57 22 96 100 81 67 91 100 100 100 100 100 100 100
0 0 0 0 0 9 5 25 21 69 28 30 18 5 23 21 6 11 41 69 68 19 43 5 34 50 84 5 11 10 85 100 100 98 77 100 100 100 100 100 100 100 100
0 0 1 1 5 5 5 47 79 89 20 17 6 48 7 55 23 11 5 29 35 78 69 63 80 100 42 72 53 22 65 100 100 100 40 98 100 100 100 100 100 100 100
0 0 0 4 5 47 97 100 100 6 5 5 7 23 100 100 69 80 5 5 21 90 100 100 39 86 100 12 6 14 27 24 26 44 97 99 93 100 100 100 100 100 100
0 0 0 1 5 5 52 100 100 36 5 10 32 14 29 5 6 90 68 25 97 23 19 52 39 100 98 86 100 94 99 100 73 62 100 100 100 100 100 100 100 100 100
0 0 0 0 0 1 2 6 3 0 3 1 49 7 5 8 5 88 90 88 88 15 79 100 100 98 100 68 84 73 38 24 100 94 100 98 87 100 86 100 100 100 95
0 0 19 0 0 0 0 0 0 0 2 3 4 3 5 55 40 95 100 100 100 94 100 100 100 100 100 100 100 100 100 100 97 51 66 100 65 91 100 87 100 100 100
2 0 65 0 0 0 0 0 0 0 5 0 5 26 75 93 100 100 100 100 98 100 100 100 100 99 100 100 100 100 100 100 96 100 85 70 65 100 97 74 61 95 64
0 0 0 17 0 0 0 0 0 0 0 5 26 47 61 88 100 100 97 100 100 100 99 70 100 100 100 100 95 100 100 100 100 100 92 91 75 100 100 100 100 100 100
0 2 0 3 2 0 0 0 2 0 1 5 5 47 63 100 100 100 100 100 100 100 100 100 100 100 100 100 100 100 100 100 100 100 100 100 100 100 100 100 100 100 100
0 0 0 0 0 0 0 1 2 4 19 47 47 100 94 55 68 99 100 100 100 100 100 100 100 99 100 97 99 100 100 100 100 100 100 98 100 100 100 100 100 100 99
0 0 0 0 0 1 5 5 5 5 30 100 100 100 81 96 69 33 6 7 91 98 99 86 100 100 100 99 100 100 100 100 100 100 100 93 100 100 100 100 100 100 100
2 0 0 0 4 5 5 5 0 0 0 96 100 100 100 100 100 99 20 92 98 98 93 98 47 92 100 100 100 100 100 100 100 100 100 100 100 78 72 100 100 100 100
99 17 1 0 0 5 10 59 4 0 0 8 21 86 88 100 83 88 10 5 5 11 51 79 82 100 90 77 76 87 81 89 100 81 91 15 22 3 0 0 9 79 100